Flag for Germany Weather past 2 weeks in Unna, North Rhine-Westphalia, Germany

Now
59 °F

Sunny.


Feels Like: 59 °F
Forecast: 69 / 92 °F
Wind: 1 mph from North

Location: Dortmund / Wickede

Current Time: Jul 1, 2015 at 7:12:36 AM

Latest Report: Jul 1, 2015 at 6:20 AM


Visibility: 10 mi

Pressure: 30.09 "Hg

Humidity: 72%

Dew point: 50 °F

Location of UnnaLocation

Historic Weather in Unna — Graph

°F

Unna temperature yesterday

Maximum temperature yesterday: 79 °F (at 3:50 PM)
Minimum temperature yesterday: 52 °F (at 5:50 AM)
Average temperature yesterday: 71 °F

Past Weeks' High & Low Weather Summary

 TemperatureHumidityPressure
High79 °F (Jun 30, 3:50 PM)94% (Jun 20, 6:20 AM)30.27 "Hg (Jun 20, 6:20 AM)
Low43 °F (Jun 17, 5:20 AM)30% (Jun 30, 5:50 PM)29.68 "Hg (Jun 22, 7:50 PM)
Average61 °F64%30.07 "Hg
* Reported Jun 16 6:20 AM — Jul 1 6:20 AM, Unna, Weather by CustomWeather, © 2015

Note: Actual official high and low records may vary slightly from our data, if they occured in-between our weather recording intervals... More about our weather records

Advertising

Unna weather history for previous 24 hours

 ConditionsComfort  
Time TempWeatherWind HumidityBarometerVisibility
6:20 AM
Wed, Jul 1
59 °FSunny.1 mph72%30.09 "Hg10 mi
5:50 AM57 °FClear.2 mph72%30.09 "Hg10 mi
5:20 AM59 °FClear.3 mph72%30.09 "Hg10 mi
10:50 PM
Tue, Jun 30
68 °FClear.7 mph53%30.12 "Hg10 mi
10:20 PM68 °FSunny.6 mph53%30.12 "Hg10 mi
9:50 PM70 °FSunny.6 mph50%30.12 "Hg10 mi
9:20 PM73 °FSunny.7 mph41%30.12 "Hg10 mi
8:50 PM75 °FSunny.7 mph36%30.12 "Hg10 mi
8:20 PM77 °FSunny.9 mph32%30.12 "Hg10 mi
7:50 PM77 °FSunny.10 mph30%30.12 "Hg10 mi
6:50 PM79 °FPassing clouds.8 mph30%30.12 "HgN/A
6:20 PM79 °FPassing clouds.8 mph32%30.12 "HgN/A
5:50 PM79 °FPassing clouds.7 mph30%30.12 "HgN/A
4:50 PM79 °FSunny.7 mph32%30.12 "Hg10 mi
4:20 PM79 °FSunny.6 mph32%30.15 "Hg10 mi
3:50 PM79 °FSunny.6 mph32%30.15 "Hg10 mi
2:50 PM77 °FPassing clouds.5 mph36%30.15 "HgN/A
2:20 PM77 °FPassing clouds.5 mph39%30.15 "HgN/A
1:50 PM77 °FSunny.5 mph42%30.15 "Hg10 mi
1:20 PM77 °FPassing clouds.7 mph44%30.18 "HgN/A
12:50 PM75 °FSunny.6 mph44%30.18 "Hg10 mi
12:20 PM73 °FSunny.7 mph47%30.18 "Hg10 mi
11:50 AM73 °FSunny.7 mph50%30.18 "Hg10 mi
11:20 AM72 °FPassing clouds.9 mph57%30.18 "HgN/A
10:50 AM72 °FPassing clouds.8 mph53%30.18 "HgN/A
10:20 AM70 °FPassing clouds.7 mph64%30.21 "HgN/A
9:50 AM70 °FPassing clouds.5 mph60%30.21 "HgN/A
9:20 AM68 °FSunny.3 mph64%30.21 "Hg10 mi
8:50 AM66 °FSunny.2 mph68%30.21 "Hg10 mi
8:20 AM64 °FSunny.3 mph68%30.18 "Hg10 mi
7:50 AM63 °FSunny.2 mph73%30.18 "Hg10 mi
7:20 AM61 °FSunny.3 mph77%30.18 "Hg10 mi
Weather by CustomWeather, © 2015

See weather overviewHow to use our weather pages